SBTE

Details ICAO SBTE (THE)
Name Senador Petronio Portella
Region Brazil
Timezone America/Fortaleza (UTC-3.0)
Plans Departing 59
Arriving 41
Stats Elevation 219 ft / 67 m (AMSL)
Location -5.059940° -42.823478°
Runways 1
Magnetic Variation 21.543° W
Sunrise 2018-05-26 08:54:03 UTC / 2018-05-26 05:54:03 Local
Sunset 2018-05-26 20:45:32 UTC / 2018-05-26 17:45:32 Local
Advertisement - Login to hide

Runways

ID Width Length Bearing (true) Bearing (mag) Surface Threshold Offset Overrun Length
02 148 ft / 45 m 7,246 ft / 2,209 m 354.11° 15.65° Asphalt 0 ft / 0 m 190 ft / 58 m
20 148 ft / 45 m 7,246 ft / 2,209 m 174.12° 195.66° Asphalt 0 ft / 0 m 190 ft / 58 m

Map

Weather


0- 5 10 15 20 25 30 35+ Temperature / ° C

Clouds and Precipitation
Forecast for 2018-05-26 06:00 UTC. Updated 5 hours ago

Ground ~20,000 ft ~40,000 ft Winds

METAR

SBTE 261000Z 18007KT 1600 BR BKN005 23/22 Q1013

TAF

TAF SBTE 260400Z 2606/2618 33003KT 8000 BKN008 TN24/2607Z TX32/2617Z BECMG 2611/2613 14005KT SCT030 RMK PEI

Frequencies

Recorded 127.80 MHz TERESINA ATIS
Approach 119.60 MHz TERESINA APP
Tower 118.80 MHz TWR
Warning: Do not use this data for real-world aviation or navigation. No guarantee of current accuracy is given.